Date,TemperatureHighF,TemperatureAvgF,TemperatureLowF,DewpointHighF,DewpointAvgF,DewpointLowF,HumidityHigh,HumidityAvg,HumidityLow,PressureMaxIn,PressureMinIn,WindSpeedMaxMPH,WindSpeedAvgMPH,GustSpeedMaxMPH,PrecipitationSumIn
2013-3-1,30,28,26,29,27,26,99,97,87,30.17,30.07,4,2,11,0.00
2013-3-2,36,27,21,27,23,20,99,86,62,30.25,30.13,8,2,14,0.05
2013-3-3,56,38,20,30,27,20,99,67,35,30.14,29.78,8,3,17,0.01
2013-3-4,68,50,37,49,40,31,99,71,43,29.78,29.58,8,3,18,0.00
2013-3-5,43,36,29,38,28,22,99,74,50,30.21,29.77,13,4,21,0.05
2013-3-6,49,35,25,28,24,20,83,66,42,30.33,30.19,10,3,18,0.00
2013-3-7,62,46,32,35,29,21,84,56,20,30.24,30.10,7,3,17,0.00
2013-3-8,60,48,36,42,37,34,95,68,45,30.22,30.01,8,4,17,0.00
2013-3-9,73,57,44,59,48,39,99,75,36,30.01,29.67,13,4,22,0.78
2013-3-10,60,47,31,56,47,31,99,98,77,29.84,29.59,8,3,17,0.86
2013-3-11,44,34,27,33,28,26,99,83,56,29.97,29.79,7,2,17,0.01
2013-3-12,56,40,27,32,28,23,99,64,31,30.25,29.95,7,2,14,0.00
2013-3-13,49,37,26,28,25,19,90,64,32,30.39,30.24,4,1,8,0.00
2013-3-14,73,52,32,44,34,24,86,55,29,30.30,30.04,10,2,21,0.00
2013-3-15,84,65,48,52,46,40,87,55,23,30.05,29.71,8,2,20,0.00
2013-3-16,68,57,43,52,46,40,94,69,48,29.88,29.70,11,4,23,0.01
2013-3-17,42,39,37,42,39,36,99,99,97,29.94,29.65,8,3,15,1.22
2013-3-18,56,44,34,44,38,31,99,84,48,29.99,29.64,7,2,13,0.01
2013-3-19,51,39,27,35,26,12,99,65,24,30.19,29.98,8,1,16,0.01
2013-3-20,45,35,27,33,21,5,99,63,21,30.27,30.06,9,3,18,0.00
2013-3-21,37,30,25,32,22,12,99,75,38,30.06,29.83,5,2,13,0.00
2013-3-22,41,34,29,39,34,29,99,99,93,29.90,29.81,5,2,14,0.12
2013-3-23,42,38,34,40,37,34,99,99,94,29.91,29.67,5,1,12,0.17
2013-3-24,41,33,27,41,33,25,99,98,90,30.00,29.54,6,2,14,0.38
2013-3-25,34,27,22,29,25,21,99,91,77,30.23,29.97,7,3,16,0.00
2013-3-26,42,32,21,31,27,21,99,83,56,30.33,30.22,4,1,10,0.00
2013-3-27,54,40,25,34,29,24,99,68,39,30.28,30.12,7,2,16,0.00
2013-3-28,71,57,-11,49,41,-52,76,58,10,30.18,30.06,30,2,30,0.00
2013-3-29,71,58,50,59,52,45,99,82,53,30.14,30.06,7,1,13,0.12
2013-3-30,71,56,49,60,54,49,99,93,68,30.09,29.78,6,2,20,0.24
2013-3-31,70,57,46,56,46,40,99,73,35,29.93,29.81,8,1,11,0.34